Weather in Chumakovo

Russia / Novosibirsk Oblast     55°41′15″N   79°03′11″E
temp.,
°C
wind,
m/s
gust,
m/s
humid.,
%
clouds,
%
prec.,
mm/h
press.,
hPa
HPBL,
m
2 march, tue
tue201:00−16ne3695100 0.2 1013207
04:00−17nne239792 0.1 101345
07:00−20nne2210086 0.1 101420
10:00−18nne119793 0.0 101566
13:00−15nnw009094 0.1 1015254
16:00−13sw2287100 0.0 1015361
19:00−16wsw1296100 0.1 101520
22:00−20sw1210091 0.0 101620
3 march, wed
wed301:00−21sw2210082 0.0 101620
04:00−21ssw2310086 0.0 101620
07:00−21ssw2310082 0.0 101720
10:00−17s359692 0.1 1017172
13:00−13s479389 0.1 1017348
16:00−12s6992100 0.0 1016439
19:00−13s61294100 0.1 1017406
22:00−15ssw71494100 0.0 1016421
4 march, thu
thu401:00−13ssw71493100 0.2 1015544
04:00−11ssw81494100 0.7 1014548
07:00−10ssw81492100 0.9 1013500
10:00−9ssw81393100 0.3 1012529
13:00−6ssw91492100 0.7 1011648
16:00−3ssw91492100 0.3 1010774
19:00−3ssw81494100 0.6 1010795
22:00−3ssw91694100 0.5 1008831
5 march, fri
fri501:00−3ssw91594100 0.9 1008764
04:00−4ssw91594100 0.7 1006672
07:00−5ssw81493100 0.9 1006544
10:00−4ssw71294100 0.4 1006573
13:00−3w71084100 0.8 1008754
16:00−5wsw7118517 0.0 1011632
19:00−8sw7148922 0.0 1013484
22:00−8ssw101891100 0.1 1013798
6 march, sat
sat601:00−6sw111793100 1.4 10121003
04:00−5sw101793100 0.5 1011902
07:00−5sw101794100 1.8 1011803
10:00−4sw91690100 0.7 1011772
13:00−3sw91492100 0.8 1011836
16:00−3sw91393100 0.6 1012787
19:00−5sw81491100 0.8 1013670
22:00−5wsw61192100 0.1 1015731